This is the latest recevied weather packets stored in our database for station/object K5NWZ. If no packets are shown the sender has not sent any weather packets the latest 10 day(s).
| Time | Temp. | Humidity | Pressure | Rain* | Wind** | Luminosity | Snow |
|---|---|---|---|---|---|---|---|
| 1778032501 | 0.56° C | 97% | 1023.7 hPa | 0 mm | - | 1 W/m² | - |
| 1778032198 | 0.56° C | 97% | 1023.8 hPa | 0 mm | - | 2 W/m² | - |
| 1778031895 | 0.56° C | 97% | 1023.9 hPa | 0 mm | - | 2 W/m² | - |
| 1778031591 | 0.56° C | 97% | 1023.7 hPa | 0 mm | - | 3 W/m² | - |
| 1778031289 | 0° C | 97% | 1023.4 hPa | 0 mm | - | 3 W/m² | - |
| 1778030985 | 0° C | 97% | 1023.4 hPa | 0 mm | - | 4 W/m² | - |
| 1778030682 | 0° C | 97% | 1023.3 hPa | 0 mm | - | 4 W/m² | - |
| 1778030379 | 0° C | 97% | 1023.4 hPa | 0 mm | - | 5 W/m² | - |
| 1778030076 | 0° C | 97% | 1023.3 hPa | 0 mm | - | 7 W/m² | - |
| 1778029773 | 0° C | 97% | 1023.2 hPa | 0 mm | - | 8 W/m² | - |
| 1778029472 | 0.56° C | 97% | 1023.2 hPa | 0 mm | - | 8 W/m² | - |
| 1778029167 | 0° C | 97% | 1023.2 hPa | 0 mm | - | 8 W/m² | - |
| 1778028866 | 0° C | 97% | 1023.2 hPa | 0 mm | - | 11 W/m² | - |
| 1778028560 | 0° C | 97% | 1023.4 hPa | 0 mm | - | 14 W/m² | - |
| 1778028259 | 0° C | 97% | 1023.2 hPa | 0 mm | - | 15 W/m² | - |
| 1778027954 | 0° C | 97% | 1023.2 hPa | 0 mm | - | 14 W/m² | - |
| 1778027651 | 0° C | 97% | 1023.1 hPa | 0 mm | - | 16 W/m² | - |
| 1778027348 | 0° C | 97% | 1023.2 hPa | 0 mm | - | 16 W/m² | - |
| 1778027044 | 0° C | 97% | 1023.2 hPa | 0 mm | - | 21 W/m² | - |
| 1778026739 | 0° C | 97% | 1023.3 hPa | 0 mm | - | 21 W/m² | - |
| 1778026436 | 0° C | 97% | 1023.1 hPa | 0 mm | - | 20 W/m² | - |
| 1778026133 | 0° C | 97% | 1023.1 hPa | 0 mm | - | 20 W/m² | - |
| 1778025831 | 0° C | 97% | 1023 hPa | 0 mm | - | 24 W/m² | - |
| 1778025528 | 0° C | 97% | 1023 hPa | 0 mm | - | 29 W/m² | - |
| 1778025225 | 0° C | 96% | 1022.6 hPa | 0 mm | - | 28 W/m² | - |
* Rain latest hour (hover to see other rain measurements)
** Current wind speed in m/s (hover to see current wind gust speed)